KI4BIY Weather Reports


time (UTC)temp
C
wind
direction
speed
KPH
gust
KPH
rain 1hr
cm
rain 24hr
cm
rain mn
cm
humidity
%
barometer
mb
20260504205849 26 271 9.7 11.3 0.00 0.00 0.00 42 1008.7
20260504205346 26 273 6.4 8.0 0.00 0.00 0.00 42 1009.0
20260504204844 26 246 8.0 9.7 0.00 0.00 0.00 40 1009.0
20260504204343 26 269 6.4 9.7 0.00 0.00 0.00 41 1009.0
20260504203842 26 246 8.0 9.7 0.00 0.00 0.00 41 1009.4
20260504203338 26 252 6.4 8.0 0.00 0.00 0.00 41 1009.2
20260504202834 27 248 8.0 9.7 0.00 0.00 0.00 38 1009.4
20260504202331 27 275 8.0 9.7 0.00 0.00 0.00 41 1009.5
20260504201828 27 248 3.2 4.8 0.00 0.00 0.00 41 1009.5
20260504201325 26 236 6.4 9.7 0.00 0.00 0.00 41 1009.6
20260504200822 27 254 8.0 9.7 0.00 0.00 0.00 40 1009.7
20260504200319 27 253 4.8 4.8 0.00 0.00 0.00 42 1010.0
20260504195815 27 259 6.4 9.7 0.00 0.00 0.00 39 1009.9
20260504195311 27 259 9.7 11.3 0.00 0.00 0.00 39 1010.0
20260504194808 27 268 6.4 8.0 0.00 0.00 0.00 39 1009.9
20260504194304 27 222 3.2 3.2 0.00 0.00 0.00 41 1010.1
20260504193800 27 210 4.8 4.8 0.00 0.00 0.00 41 1010.3
20260504193258 27 224 1.6 3.2 0.00 0.00 0.00 40 1010.4
20260504192756 27 248 4.8 8.0 0.00 0.00 0.00 41 1010.3
20260504192254 27 234 1.6 3.2 0.00 0.00 0.00 43 1010.2
20260504191753 27 190 6.4 8.0 0.00 0.00 0.00 43 1010.6
20260504191249 27 260 8.0 9.7 0.00 0.00 0.00 43 1010.4
20260504190744 27 281 6.4 8.0 0.00 0.00 0.00 42 1010.7
20260504190241 27 244 8.0 9.7 0.00 0.00 0.00 41 1010.6
20260504185738 27 255 6.4 8.0 0.00 0.00 0.00 42 1011.0
20260504185235 27 258 8.0 11.3 0.00 0.00 0.00 41 1011.0
20260504184731 27 250 4.8 4.8 0.00 0.00 0.00 42 1010.8
20260504184227 26 255 4.8 4.8 0.00 0.00 0.00 43 1010.7
20260504183723 26 252 6.4 8.0 0.00 0.00 0.00 42 1011.0
20260504183220 26 251 6.4 9.7 0.00 0.00 0.00 42 1011.1
20260504182718 26 264 3.2 3.2 0.00 0.00 0.00 43 1011.2
20260504182215 26 255 6.4 8.0 0.00 0.00 0.00 42 1011.0
20260504181712 26 247 3.2 3.2 0.00 0.00 0.00 43 1010.9
20260504181210 26 250 3.2 4.8 0.00 0.00 0.00 44 1011.3
20260504180709 27 250 6.4 8.0 0.00 0.00 0.00 42 1011.1
20260504180207 26 250 4.8 4.8 0.00 0.00 0.00 45 1011.1
20260504175704 26 253 6.4 9.7 0.00 0.00 0.00 45 1011.3
20260504175200 26 221 4.8 4.8 0.00 0.00 0.00 45 1011.5
20260504174659 25 257 11.3 12.9 0.00 0.00 0.00 44 1011.3
20260504174155 26 259 4.8 4.8 0.00 0.00 0.00 44 1011.6
20260504173652 26 245 8.0 9.7 0.00 0.00 0.00 47 1011.7
20260504173150 26 271 11.3 14.5 0.00 0.00 0.00 46 1011.4
20260504172646 25 240 3.2 3.2 0.00 0.00 0.00 49 1011.8
20260504172143 25 255 8.0 9.7 0.00 0.00 0.00 49 1011.8
20260504171639 25 247 6.4 9.7 0.00 0.00 0.00 50 1011.8
20260504171137 25 236 6.4 8.0 0.00 0.00 0.00 48 1011.9
20260504170633 25 265 6.4 8.0 0.00 0.00 0.00 49 1012.0
20260504170131 25 262 4.8 8.0 0.00 0.00 0.00 49 1012.1
20260504151016 23 249 8.0 9.7 0.00 0.00 0.00 56 1013.0
20260504150513 23 240 3.2 3.2 0.00 0.00 0.00 57 1012.9
20260504140939 21 252 1.6 3.2 0.00 0.00 0.00 64 1013.3
20260504140435 21 229 1.6 1.6 0.00 0.00 0.00 67 1013.3
20260504130400 18 253 3.2 3.2 0.00 0.00 0.00 71 1013.1
20260504110248 15 243 0.0 0.0 0.00 0.00 0.00 76 1012.1
20260504100211 15 244 0.0 0.0 0.00 0.00 0.00 76 1012.4
20260504090133 16 216 1.6 1.6 0.00 0.00 0.00 72 1012.4
20260504081604 16 242 0.0 1.6 0.00 0.00 0.00 70 1012.8
20260504081100 16 237 0.0 0.0 0.00 0.00 0.00 69 1012.9
20260504080557 16 232 1.6 1.6 0.00 0.00 0.00 69 1012.8
20260504050409 15 236 0.0 0.0 0.00 0.00 0.00 65 1014.2
20260504045906 15 230 0.0 1.6 0.00 0.00 0.00 66 1014.3
20260504045401 15 230 0.0 1.6 0.00 0.00 0.00 65 1014.1
20260504044859 15 236 0.0 0.0 0.00 0.00 0.00 65 1014.3
20260504044356 15 236 0.0 0.0 0.00 0.00 0.00 65 1014.3
20260504043854 15 244 0.0 0.0 0.00 0.00 0.00 66 1014.4
20260504043350 15 245 0.0 0.0 0.00 0.00 0.00 66 1014.3
20260504042848 15 230 0.0 0.0 0.00 0.00 0.00 66 1014.2
20260504042343 15 230 0.0 0.0 0.00 0.00 0.00 65 1014.3
20260504041840 15 230 0.0 0.0 0.00 0.00 0.00 65 1014.3
20260504041336 15 230 0.0 1.6 0.00 0.00 0.00 65 1014.3
20260504040832 15 231 0.0 0.0 0.00 0.00 0.00 65 1014.4
20260504040330 15 230 0.0 0.0 0.00 0.00 0.00 65 1014.2
20260504035826 15 242 0.0 0.0 0.00 0.00 0.00 66 1014.4
20260504035324 15 242 0.0 0.0 0.00 0.00 0.00 66 1014.4
20260504034820 15 242 0.0 1.6 0.00 0.00 0.00 67 1014.4
20260504034318 15 234 0.0 1.6 0.00 0.00 0.00 66 1014.5
20260504033815 15 253 0.0 0.0 0.00 0.00 0.00 66 1014.5
20260504033313 15 254 0.0 0.0 0.00 0.00 0.00 66 1014.6
20260504032809 15 231 0.0 0.0 0.00 0.00 0.00 67 1014.6
20260504032306 15 231 0.0 0.0 0.00 0.00 0.00 68 1014.7
20260504031803 15 231 0.0 0.0 0.00 0.00 0.00 68 1014.6
20260504031301 15 253 0.0 0.0 0.00 0.00 0.00 67 1014.5
20260504030756 15 253 0.0 0.0 0.00 0.00 0.00 67 1015.0
20260504030254 15 253 0.0 0.0 0.00 0.00 0.00 68 1014.8
20260504025750 15 253 0.0 0.0 0.00 0.00 0.00 67 1014.8
20260504025247 15 253 0.0 0.0 0.00 0.00 0.00 66 1014.6
20260504024744 15 253 0.0 0.0 0.00 0.00 0.00 67 1014.9
20260504024240 15 253 0.0 0.0 0.00 0.00 0.00 68 1014.6
20260504023738 15 253 0.0 0.0 0.00 0.00 0.00 66 1015.0
20260504023233 15 253 0.0 0.0 0.00 0.00 0.00 67 1014.7
20260504022729 15 253 0.0 0.0 0.00 0.00 0.00 68 1014.7
20260504022226 15 253 0.0 0.0 0.00 0.00 0.00 71 1014.8
20260504021723 15 253 0.0 0.0 0.00 0.00 0.00 69 1014.5
20260504021220 15 253 0.0 0.0 0.00 0.00 0.00 70 1014.4
20260504020717 15 253 0.0 0.0 0.00 0.00 0.00 70 1014.7
20260504020214 15 253 0.0 0.0 0.00 0.00 0.00 68 1014.5
20260504015710 15 253 0.0 0.0 0.00 0.00 0.00 64 1014.5
20260504015207 15 253 0.0 0.0 0.00 0.00 0.00 67 1014.2
20260504014702 15 253 0.0 0.0 0.00 0.00 0.00 62 1014.5
20260504014159 15 253 0.0 0.0 0.00 0.00 0.00 63 1014.4
20260504013657 15 253 0.0 0.0 0.00 0.00 0.00 64 1014.4
20260504013154 16 253 0.0 0.0 0.00 0.00 0.00 64 1014.4
20260504012651 16 253 0.0 0.0 0.00 0.00 0.00 67 1014.3
20260504012148 16 253 0.0 0.0 0.00 0.00 0.00 63 1014.4
20260504011645 16 253 0.0 0.0 0.00 0.00 0.00 63 1014.2
20260504011142 16 254 0.0 0.0 0.00 0.00 0.00 63 1014.4
20260504010638 17 254 0.0 0.0 0.00 0.00 0.00 59 1014.4
20260504010134 17 254 0.0 0.0 0.00 0.00 0.00 56 1014.2
20260504005631 17 254 0.0 0.0 0.00 0.00 0.00 55 1014.3
20260504005127 17 254 0.0 0.0 0.00 0.00 0.00 53 1014.1
20260504004626 18 254 0.0 0.0 0.00 0.00 0.00 52 1014.2
20260504004123 18 254 0.0 0.0 0.00 0.00 0.00 55 1014.5
20260504003619 19 254 0.0 0.0 0.00 0.00 0.00 51 1014.3
20260504003115 19 254 0.0 0.0 0.00 0.00 0.00 48 1014.5
20260504002612 20 254 0.0 0.0 0.00 0.00 0.00 47 1014.3
20260504002110 20 254 0.0 0.0 0.00 0.00 0.00 46 1014.3
20260504001608 20 254 0.0 0.0 0.00 0.00 0.00 46 1014.6
20260504001103 20 254 0.0 0.0 0.00 0.00 0.00 45 1014.3
20260504000601 20 253 0.0 0.0 0.00 0.00 0.00 45 1014.4
20260504000058 21 253 0.0 0.0 0.00 0.00 0.00 45 1014.4
20260503235556 21 254 0.0 0.0 0.00 0.00 0.00 45 1014.3
20260503235053 21 254 0.0 0.0 0.00 0.00 0.00 40 1014.4
20260503234550 21 253 0.0 0.0 0.00 0.00 0.00 40 1014.5
20260503234049 22 250 1.6 1.6 0.00 0.00 0.00 39 1014.3
20260503233545 22 252 3.2 3.2 0.00 0.00 0.00 40 1014.5
20260503233041 22 247 4.8 4.8 0.00 0.00 0.00 39 1014.6
20260503232538 22 246 3.2 4.8 0.00 0.00 0.00 40 1014.8
20260503232035 21 218 1.6 1.6 0.00 0.00 0.00 43 1014.6
20260503231533 21 70 0.0 0.0 0.00 0.00 0.00 40 1014.8
20260503231030 22 212 3.2 3.2 0.00 0.00 0.00 39 1014.9
20260503230526 22 248 1.6 3.2 0.00 0.00 0.00 39 1014.8
20260503230024 22 236 1.6 1.6 0.00 0.00 0.00 39 1014.8
20260503225521 22 234 1.6 1.6 0.00 0.00 0.00 41 1014.8
20260503225015 22 228 1.6 1.6 0.00 0.00 0.00 39 1015.0
20260503224514 22 240 1.6 1.6 0.00 0.00 0.00 40 1014.8
20260503224011 22 156 1.6 3.2 0.00 0.00 0.00 40 1015.0
20260503223509 22 252 1.6 1.6 0.00 0.00 0.00 39 1015.1
20260503223004 22 227 1.6 3.2 0.00 0.00 0.00 39 1015.1
20260503222503 22 239 1.6 1.6 0.00 0.00 0.00 39 1015.3
20260503222000 22 236 1.6 1.6 0.00 0.00 0.00 37 1015.2
20260503221458 22 247 3.2 3.2 0.00 0.00 0.00 37 1015.3
20260503220955 22 254 4.8 4.8 0.00 0.00 0.00 38 1015.2
20260503220452 22 260 3.2 3.2 0.00 0.00 0.00 39 1015.2
20260503215948 22 253 3.2 3.2 0.00 0.00 0.00 38 1015.4
20260503215445 22 262 4.8 4.8 0.00 0.00 0.00 39 1015.4
20260503214943 22 244 1.6 3.2 0.00 0.00 0.00 38 1015.4
20260503214441 22 260 6.4 9.7 0.00 0.00 0.00 38 1015.5
20260503213938 22 244 0.0 0.0 0.00 0.00 0.00 38 1015.6
20260503213436 22 254 1.6 1.6 0.00 0.00 0.00 38 1015.6
20260503212932 22 251 4.8 4.8 0.00 0.00 0.00 36 1015.8
20260503212429 22 258 4.8 4.8 0.00 0.00 0.00 36 1015.9
20260503211927 22 211 0.0 0.0 0.00 0.00 0.00 38 1015.9
20260503211424 22 257 1.6 1.6 0.00 0.00 0.00 39 1016.2
20260503210919 22 256 4.8 8.0 0.00 0.00 0.00 37 1016.3
20260503210416 22 252 4.8 9.7 0.00 0.00 0.00 36 1016.3
20260503205916 22 258 1.6 1.6 0.00 0.00 0.00 40 1016.4